Location: Unspecified
(58.7730°N, 5.8460°E)
Time: 16:13:09
(UTC+01:00)

Resurs 1-4 Rocket - Visible Passes

Search period start: 13 February 2016 00:00
Search period end: 23 February 2016 00:00
Orbit: 801 x 813 km, 98.4° (Epoch: 12 February)

Date Brightness Start Highest point End Pass type
(mag) Time Alt. Az. Time Alt. Az. Time Alt. Az.
13 Feb 4.7 02:20:38 10° NE 02:22:23 15° ENE 02:22:23 15° ENE visible
13 Feb 2.9 03:59:38 10° NNE 04:03:29 48° NNE 04:03:29 48° NNE visible
13 Feb 3.0 05:39:56 10° N 05:44:30 30° NW 05:44:35 29° NW visible
13 Feb 4.1 07:21:34 10° NNW 07:22:52 11° NNW 07:24:10 10° NW visible
14 Feb 4.9 01:57:08 10° NE 01:57:41 11° ENE 01:57:41 11° ENE visible
14 Feb 3.3 03:35:09 10° NNE 03:38:47 39° NE 03:38:47 39° NE visible
14 Feb 2.7 05:15:14 10° N 05:19:52 39° NW 05:19:52 39° NW visible
14 Feb 3.9 06:56:15 10° N 06:58:48 14° NW 07:00:58 11° WNW visible
15 Feb 3.8 03:10:44 10° NNE 03:14:04 30° ENE 03:14:04 30° ENE visible
15 Feb 2.4 04:50:35 10° NNE 04:55:10 51° NW 04:55:10 51° NW visible
15 Feb 3.7 06:31:18 10° N 06:34:41 17° NW 06:36:16 15° WNW visible
16 Feb 4.2 02:46:27 10° NNE 02:49:23 23° ENE 02:49:23 23° ENE visible
16 Feb 2.3 04:25:59 10° NNE 04:30:28 61° N 04:30:28 61° N visible
16 Feb 3.4 06:06:29 10° N 06:10:30 22° NW 06:11:33 21° WNW visible
17 Feb 4.5 02:22:21 10° NE 02:24:40 17° ENE 02:24:40 17° ENE visible
17 Feb 2.6 04:01:25 10° NNE 04:05:46 59° NE 04:05:46 59° NE visible
17 Feb 3.0 05:41:44 10° N 05:46:15 29° NW 05:46:52 28° WNW visible
17 Feb 4.1 07:23:28 10° NNW 07:24:36 11° NNW 07:25:43 10° NW visible
18 Feb 4.8 01:58:46 10° NE 01:59:58 12° ENE 01:59:58 12° ENE visible
18 Feb 3.0 03:36:55 10° NNE 03:41:04 46° ENE 03:41:04 46° ENE visible
18 Feb 2.6 05:17:01 10° N 05:21:56 38° WNW 05:22:09 38° WNW visible
18 Feb 4.0 06:58:05 10° N 07:00:32 13° NW 07:02:59 10° WNW visible
19 Feb 3.5 03:12:29 10° NNE 03:16:22 34° ENE 03:16:22 34° ENE visible
19 Feb 2.3 04:52:22 10° NNE 04:57:27 52° WNW 04:57:27 52° WNW visible
19 Feb 3.7 06:33:07 10° N 06:36:25 17° NW 06:38:33 14° WNW visible
20 Feb 4.0 02:48:12 10° NNE 02:51:40 25° ENE 02:51:40 25° ENE visible
20 Feb 2.1 04:27:45 10° NNE 04:32:46 70° NW 04:32:46 70° NW visible
20 Feb 3.4 06:08:17 10° N 06:12:14 22° NW 06:13:51 19° WNW visible
21 Feb 4.4 02:24:05 10° NE 02:26:58 18° ENE 02:26:58 18° ENE visible
21 Feb 2.2 04:03:11 10° NNE 04:08:04 72° NE 04:08:04 72° NE visible
21 Feb 3.1 05:43:31 10° N 05:48:00 28° NW 05:49:09 26° WNW visible
22 Feb 4.7 02:00:25 10° NE 02:02:16 13° ENE 02:02:16 13° ENE visible
22 Feb 2.7 03:38:41 10° NNE 03:43:22 54° ENE 03:43:22 54° ENE visible
22 Feb 2.7 05:18:49 10° N 05:23:42 37° WNW 05:24:27 35° WNW visible
22 Feb 4.0 06:59:54 10° N 07:02:16 13° NW 07:04:37 10° WNW visible
